Location: Caltech
(34.1382°N, 118.1253°W)
Time: 10:19:07
(UTC-08:00)

Cosmos 2219 Rocket - Visible Passes

Search period start: 18 December 2014 00:00
Search period end: 28 December 2014 00:00
Orbit: 827 x 848 km, 71.0° (Epoch: 17 December)

Date Brightness Start Highest point End Pass type
(mag) Time Alt. Az. Time Alt. Az. Time Alt. Az.
18 Dec 4.8 05:42:38 10° SSE 05:47:03 24° E 05:51:28 10° NE visible
18 Dec 5.1 18:07:46 10° WNW 18:11:26 18° W 18:15:04 10° SW visible
19 Dec 4.8 05:26:36 10° SSE 05:30:49 22° E 05:35:02 10° NE visible
19 Dec 5.1 17:51:17 10° NW 17:55:12 20° W 17:59:05 10° SW visible
20 Dec 4.9 05:10:35 10° SE 05:14:35 20° E 05:18:35 10° NE visible
20 Dec 5.0 17:34:50 10° NW 17:38:58 21° W 17:43:05 10° SSW visible
21 Dec 5.0 04:54:36 10° SE 04:58:21 18° E 05:02:07 10° ENE visible
21 Dec 4.9 17:18:24 10° NW 17:22:44 23° W 17:27:03 10° SSW visible
22 Dec 5.0 04:38:40 10° SE 04:42:08 17° E 04:45:36 10° ENE visible
22 Dec 2.3 06:20:01 10° SW 06:25:32 54° WNW 06:31:06 10° N visible
23 Dec 5.1 04:22:46 10° SE 04:25:54 15° E 04:29:03 10° ENE visible
23 Dec 2.2 06:03:41 10° SSW 06:09:15 59° WNW 06:14:52 10° NNE visible
24 Dec 5.1 04:06:55 10° SE 04:09:41 14° E 04:12:26 10° ENE visible
24 Dec 2.2 05:47:22 10° SSW 05:52:58 64° WNW 05:58:37 10° NNE visible
25 Dec 5.2 03:51:11 10° ESE 03:53:27 13° E 03:55:44 10° ENE visible
25 Dec 2.1 05:31:03 10° SSW 05:36:41 70° WNW 05:42:22 10° NNE visible
26 Dec 5.2 03:35:36 10° ESE 03:37:14 11° E 03:38:51 10° E visible
26 Dec 2.1 05:14:45 10° SSW 05:20:24 76° WNW 05:26:06 10° NNE visible
27 Dec 2.1 04:58:28 10° SSW 05:04:08 82° WNW 05:09:50 10° NNE visible
